GFSCGP_925_thetae_108.txt.gz
Theta_e
313 306 305 303 303 308 306 305 304 305 307 310 312 314 313 314 315 316 317 318 314 315 318 328 329 329 329 330 329 329 330 329 329 329 331 330 327 328 329 330 329 328 330 329
313 313 310 307 304 304 304 304 304 305 306 309 311 311 311 314 316 316 317 318 316 316 327 328 329 328 328 328 328 328 327 328 328 329 329 330 330 327 328 328 329 330 330 329
313 314 314 311 310 306 305 304 304 307 309 309 312 313 313 315 317 317 317 316 316 316 328 329 329 327 327 327 328 327 327 328 327 327 326 326 328 329 328 328 329 329 328 328
311 312 313 313 313 312 313 311 310 312 312 314 311 313 312 312 314 316 316 316 316 317 328 329 328 326 326 325 326 326 326 326 325 325 325 325 325 326 327 328 327 328 329 328
309 307 309 311 312 311 312 311 312 313 312 311 312 312 312 313 314 315 315 315 315 314 327 330 328 327 325 325 324 325 326 325 324 325 324 324 323 323 324 325 328 327 328 327
308 308 308 307 308 307 309 311 314 314 312 314 313 312 314 312 314 315 316 316 317 315 326 329 328 326 324 324 324 325 325 325 324 324 323 323 324 323 323 324 325 326 327 325
310 309 308 308 308 308 309 312 314 316 315 315 313 314 314 313 314 316 319 319 321 321 323 329 327 326 323 323 323 324 324 324 323 323 323 324 323 324 324 325 326 325 326 325
312 312 309 310 308 308 307 308 312 318 317 315 314 316 318 316 317 322 324 323 322 320 324 329 328 326 324 323 323 324 324 324 323 323 323 324 324 324 324 326 325 325 324 324
312 312 310 311 311 310 309 311 310 313 315 317 316 315 314 314 324 324 324 324 322 328 328 329 328 325 324 323 323 324 324 324 323 322 324 324 324 324 323 324 323 323 324 323
305 309 306 307 309 312 311 308 310 312 317 315 317 317 317 320 323 324 325 324 322 324 329 329 328 326 325 324 323 323 323 323 323 322 323 323 324 324 323 322 322 322 321 321
301 304 306 307 309 309 314 316 316 309 316 316 319 317 322 323 322 322 324 323 321 321 321 328 327 326 325 324 323 322 323 322 322 322 322 322 323 323 323 322 322 322 322 321
303 301 301 303 303 306 313 313 315 318 314 316 316 315 314 322 323 322 321 319 320 319 317 325 326 326 324 323 323 322 322 322 322 321 321 321 323 323 323 323 321 321 321 321
302 302 308 303 304 309 310 310 307 315 316 317 316 313 314 317 322 321 321 321 320 319 317 322 327 327 325 324 323 322 322 321 321 321 321 321 321 322 322 322 322 321 320 320
305 304 304 305 307 304 303 304 304 313 313 315 313 317 313 312 319 321 318 320 319 319 318 321 327 327 325 325 324 323 322 321 321 322 323 321 321 321 321 322 321 321 320 320
304 304 304 304 304 303 302 302 302 303 307 313 311 310 310 312 317 320 319 318 317 317 320 321 325 326 327 326 325 324 323 322 321 322 322 322 321 321 320 321 322 321 321 321
305 304 304 304 304 304 304 303 303 303 303 304 306 308 309 314 313 317 317 321 323 324 323 322 321 323 328 327 326 325 324 323 322 322 322 322 322 321 321 319 320 321 321 321
305 305 305 305 305 305 306 304 303 303 304 305 305 308 317 318 319 321 323 322 322 320 319 320 319 317 315 327 327 326 325 324 323 323 322 322 322 321 321 321 320 319 319 319
304 305 304 305 305 305 302 305 306 305 305 309 315 317 317 315 320 319 320 320 319 317 316 317 314 312 310 310 326 326 326 325 324 323 323 322 322 322 322 321 318 316 313 312
302 303 301 301 305 304 304 307 311 311 310 316 317 316 315 314 317 316 318 317 316 313 312 312 309 308 307 307 317 326 326 325 324 323 323 323 323 320 318 313 307 305 305 300
302 302 303 304 305 308 308 309 309 310 314 314 315 315 315 313 315 313 316 314 311 309 307 307 305 304 304 305 310 325 323 324 317 317 319 322 318 314 306 302 298 296 296 293
307 304 304 304 301 306 307 306 307 313 314 314 312 313 312 312 312 311 313 310 306 304 303 303 301 301 301 303 304 302 302 301 302 305 308 307 307 307 304 298 295 294 290 289
309 307 304 305 302 305 310 311 311 310 310 311 310 310 309 310 313 313 308 305 303 301 300 300 300 299 299 301 301 300 299 298 299 298 298 296 295 294 293 291 290 288 287 286
309 309 306 302 304 307 310 310 310 309 308 309 308 306 310 313 313 308 304 301 300 299 299 298 298 296 295 296 298 298 297 295 295 293 292 291 290 289 289 288 287 286 286 285
306 306 309 309 309 308 310 310 309 308 306 306 306 310 312 310 309 304 300 299 298 298 298 297 296 295 294 293 293 293 293 293 292 291 290 289 289 288 287 286 286 285 284 283
306 305 308 309 306 307 309 310 309 307 306 306 307 306 307 306 302 299 297 296 294 293 296 296 294 293 291 290 290 289 289 288 287 287 286 284 283 282 281 281 281 281 281 281
307 308 306 307 307 308 308 308 308 307 308 309 304 300 298 298 296 293 291 289 290 290 291 291 293 292 291 289 288 287 286 285 284 283 282 281 281 280 279 279 279 279 279 279

GFSCGP_925_thetae_114.txt.gz
Theta_e
307 303 301 300 305 307 307 307 306 306 306 305 306 304 302 303 303 305 306 306 307 309 310 312 314 319 326 328 330 330 332 333 331 328 327 327 327 328 326 327 327 326 325 326
305 308 305 302 303 304 304 304 305 303 303 303 302 303 304 305 306 306 307 308 308 309 311 311 313 325 327 329 330 330 332 331 329 328 327 327 326 327 328 327 326 325 326 325
305 304 306 307 305 303 302 302 303 304 304 304 304 308 309 308 307 310 309 309 309 309 309 310 312 323 326 328 328 328 329 330 329 330 327 327 326 328 328 327 325 325 327 327
304 304 304 311 311 308 310 306 307 309 306 310 309 311 309 309 310 310 308 307 306 306 310 310 312 322 324 326 327 327 328 328 329 329 327 327 327 327 328 327 327 325 327 326
304 308 306 305 308 311 312 309 308 308 309 309 309 309 308 308 309 308 308 308 310 316 315 316 315 323 325 326 326 327 326 326 328 328 328 327 327 326 326 328 328 327 325 326
304 306 308 309 310 310 309 309 308 309 308 310 309 308 308 308 310 310 312 317 319 318 316 316 317 321 325 325 325 325 325 325 327 327 327 327 327 327 327 327 327 328 328 327
308 307 307 307 308 306 306 307 308 306 313 310 309 309 309 308 309 319 320 320 319 317 315 315 316 323 324 324 323 324 324 324 325 326 326 326 326 327 327 327 327 327 327 328
311 310 307 307 308 308 306 307 310 309 308 306 310 311 310 311 316 318 319 320 319 317 316 316 317 320 325 324 323 323 323 324 324 324 325 325 324 324 325 326 326 327 327 327
311 311 307 306 308 310 309 309 308 308 307 310 307 308 308 313 315 317 316 318 318 316 316 316 316 317 323 324 322 323 323 324 324 324 324 323 323 323 323 322 323 323 324 326
304 310 305 306 310 305 310 311 310 310 313 312 308 311 311 318 319 318 316 316 315 314 315 316 316 317 317 323 323 322 323 323 323 323 323 322 323 322 322 323 323 324 324 324
301 302 305 304 304 304 308 311 312 313 313 316 316 309 314 311 318 318 317 316 315 315 316 316 316 316 318 323 323 322 322 323 322 322 322 322 322 322 322 322 323 324 324 325
301 301 304 302 303 303 311 312 313 313 316 314 315 313 310 306 308 310 318 318 318 317 316 317 319 319 322 323 323 322 322 322 320 322 322 322 322 322 322 322 322 322 323 324
303 304 301 303 306 303 306 303 309 310 311 311 312 311 308 305 305 304 316 316 318 317 315 315 319 319 323 323 322 322 322 321 320 322 321 321 322 322 322 322 322 321 322 322
305 303 302 301 302 302 301 301 301 308 306 306 309 305 302 302 304 303 305 315 317 318 316 315 319 318 319 324 323 322 321 321 320 322 322 321 321 321 321 321 321 321 321 321
304 302 301 301 302 302 301 301 301 301 303 303 300 299 300 300 301 302 303 315 316 316 315 314 318 316 315 317 324 322 321 320 320 321 321 320 321 321 321 322 321 321 321 320
302 303 303 303 302 302 303 302 302 302 302 301 301 301 301 301 301 301 308 316 318 317 316 316 317 315 313 312 313 322 321 320 320 320 320 319 320 321 321 321 321 320 320 320
301 301 303 301 302 302 301 300 300 301 301 301 302 301 300 301 303 314 317 318 318 317 316 315 314 311 310 309 309 311 321 320 320 320 320 319 319 319 320 320 320 319 319 318
301 302 301 303 302 300 297 300 299 300 301 301 301 302 305 305 315 316 316 317 316 314 312 309 308 306 305 305 306 308 313 320 319 320 320 319 319 318 319 319 318 317 315 316
301 302 299 297 302 299 298 298 303 309 307 306 306 308 307 312 315 315 315 312 310 307 305 304 303 302 302 303 304 308 312 322 320 320 320 320 320 318 317 316 314 313 311 307
300 301 301 301 302 298 298 302 307 307 304 307 307 312 312 312 315 316 311 306 304 302 301 300 301 300 299 300 302 308 320 322 321 321 320 320 319 318 316 315 310 305 304 300
305 305 304 304 304 301 300 300 305 306 306 305 308 311 310 311 310 310 306 303 301 300 299 299 299 298 296 297 301 304 303 303 308 318 319 316 314 313 312 307 304 301 296 293
305 305 305 305 303 300 306 307 307 310 309 309 309 310 309 311 312 306 303 301 299 299 298 297 297 295 293 294 297 299 298 297 300 307 308 305 301 301 300 298 294 293 291 288
304 305 305 304 302 304 304 308 308 308 308 308 305 305 310 309 307 302 301 299 297 296 297 295 294 293 291 291 293 294 294 294 293 296 294 293 294 292 293 290 288 287 287 286
303 303 306 306 306 305 304 306 307 305 305 307 306 307 307 306 303 300 297 295 294 294 295 294 293 291 290 289 289 290 291 291 290 288 288 289 289 289 289 289 288 287 286 286
304 305 304 306 306 305 307 306 304 305 306 299 298 297 299 298 297 294 293 292 291 291 292 292 291 290 289 288 287 287 287 287 286 285 284 284 283 283 283 282 282 282 282 283
303 304 305 305 304 304 306 305 302 301 299 300 297 294 294 294 293 291 290 289 288 288 289 289 289 288 287 286 285 284 285 285 284 284 283 283 283 282 282 282 282 282 283 284

GFSCGP_925_thetae_120.txt.gz
Theta_e
308 307 308 308 309 309 309 309 310 311 312 313 314 315 315 314 313 312 311 314 315 316 316 315 320 322 323 324 324 325 326 328 332 335 336 333 330 328 329 328 328 328 329 330
310 308 306 307 308 308 308 308 308 309 311 311 312 312 312 311 312 313 314 314 315 315 316 320 321 322 323 326 328 328 330 331 333 333 333 332 331 331 329 326 327 326 327 328
308 309 310 310 310 309 309 309 308 308 308 308 309 310 311 312 313 313 314 315 314 317 321 322 323 323 323 326 329 329 330 332 332 332 331 333 331 330 326 327 326 326 328 330
307 308 308 308 310 310 311 310 308 307 308 309 310 312 313 313 313 314 314 315 319 322 322 322 322 323 323 327 330 330 331 332 330 332 331 333 332 332 330 329 329 329 330 328
308 307 307 308 308 308 309 309 309 309 310 309 311 312 312 312 313 312 314 320 322 323 323 320 320 321 322 325 329 330 331 330 329 331 333 333 334 332 330 329 330 330 327 326
309 309 306 307 306 307 308 309 311 312 311 314 312 313 312 312 313 313 319 321 322 320 319 319 319 320 321 322 326 328 329 329 329 330 333 333 333 331 331 331 330 329 325 324
309 310 308 308 307 310 308 310 312 313 313 313 310 310 311 312 315 319 321 320 319 319 319 319 320 322 322 324 323 326 326 328 326 327 331 332 331 330 330 331 330 329 326 323
306 312 310 306 307 309 310 311 310 311 312 312 311 310 313 319 318 317 317 317 318 319 319 319 320 323 323 324 327 325 327 326 326 325 327 330 330 328 329 330 330 328 328 325
305 306 310 309 310 307 309 313 312 311 310 310 311 316 319 317 314 313 314 315 318 318 318 318 318 321 321 322 324 327 326 327 326 325 326 328 328 330 330 330 330 330 327 327
304 305 306 308 311 312 310 310 310 310 311 309 309 313 314 315 310 307 306 306 310 314 316 317 318 319 318 319 320 320 328 326 325 325 325 329 329 329 329 329 330 330 328 327
302 305 305 307 309 312 315 314 313 312 311 311 312 311 315 314 311 308 306 305 306 310 314 317 318 317 317 318 318 318 321 325 324 325 324 328 328 328 328 326 327 327 326 326
302 303 306 306 307 308 309 314 316 319 315 314 313 313 314 314 311 307 307 305 306 307 314 316 317 317 317 318 318 317 314 323 324 324 324 328 328 327 327 326 325 324 324 326
304 303 303 304 308 308 307 306 308 310 314 315 315 313 315 314 310 307 306 305 306 306 313 315 316 318 317 317 316 316 313 313 323 324 325 326 327 326 325 324 324 324 323 323
303 302 302 303 306 305 304 305 304 305 309 311 312 310 309 307 306 305 305 305 306 306 310 314 317 319 317 316 315 314 311 312 321 323 324 326 326 324 324 324 324 322 322 322
302 301 300 300 301 302 303 304 303 303 303 305 307 305 305 305 305 304 304 305 306 307 310 316 319 320 318 314 312 310 309 310 314 322 324 324 323 324 325 324 323 323 322 321
302 302 301 301 301 301 302 302 302 303 304 304 304 304 305 304 303 304 305 305 307 311 316 318 318 316 314 311 309 307 308 308 308 322 323 323 324 325 324 324 322 321 321 320
304 302 302 301 300 300 300 301 301 302 302 303 304 304 304 303 304 305 305 306 311 315 317 315 314 312 311 310 307 305 305 306 308 315 322 323 324 324 324 323 322 320 320 319
304 303 302 303 301 302 300 301 301 301 301 302 302 303 303 304 306 308 309 309 314 315 313 311 310 308 307 306 306 302 303 305 308 311 322 323 323 323 323 322 320 319 317 316
302 304 303 303 302 300 300 301 301 301 301 302 303 305 307 309 312 313 312 313 311 310 308 307 306 304 304 302 300 300 303 303 305 310 321 322 322 322 322 317 317 315 313 308
303 303 304 303 303 302 301 302 303 304 304 309 309 310 308 308 315 315 310 307 306 304 303 302 301 301 299 297 296 299 299 298 298 299 312 321 321 321 315 314 309 305 308 302
304 307 306 304 307 304 303 304 305 305 309 309 307 304 301 310 309 307 304 302 301 300 300 298 298 297 295 293 293 295 295 295 294 297 306 319 319 316 313 307 305 302 298 295
305 307 308 307 308 307 305 305 307 309 309 306 305 306 309 310 307 304 302 300 299 298 297 296 295 294 292 290 291 292 291 290 292 295 299 310 313 311 306 303 296 295 294 290
305 304 305 307 307 307 305 307 307 307 308 306 306 305 305 304 303 301 299 297 296 295 295 294 293 292 290 288 288 289 289 289 291 292 294 294 297 299 298 296 293 291 290 289
302 302 307 305 304 302 302 300 302 304 302 300 300 301 301 300 298 298 295 294 293 293 292 292 292 291 288 287 286 286 287 287 290 291 291 292 291 290 291 291 291 290 289 288
303 304 303 305 301 301 301 299 297 298 298 298 299 298 297 298 296 294 292 291 291 290 290 290 289 289 287 285 285 285 286 287 287 288 288 288 290 288 286 287 287 286 286 285
302 301 302 303 299 299 300 297 297 298 298 297 298 297 295 295 294 293 291 289 288 287 287 287 287 287 286 283 283 283 284 285 286 286 286 286 286 286 285 284 283 285 285 286

GFSCGP_925_thetae_123.txt.gz
Theta_e
312 309 309 310 312 311 311 311 311 313 313 313 315 316 317 318 319 318 318 317 316 316 316 316 317 320 322 324 326 325 326 325 323 327 334 338 342 339 336 335 338 339 335 336
310 312 311 310 310 311 311 311 311 311 311 311 312 314 314 315 317 317 316 315 315 316 317 317 320 322 324 325 326 330 329 329 329 329 333 337 339 333 332 332 336 336 334 333
310 310 311 311 311 309 309 310 311 311 310 310 311 312 312 312 313 314 315 315 316 317 317 320 322 323 325 326 330 331 330 330 332 332 335 336 333 331 330 330 332 334 332 331
310 310 310 310 310 311 312 311 310 310 311 311 312 311 312 312 313 314 315 315 316 318 321 321 321 322 323 325 330 332 332 332 333 334 335 334 332 333 331 330 330 332 331 330
309 311 310 311 311 310 311 311 311 311 311 311 310 311 312 314 314 314 315 316 319 322 321 320 320 321 321 324 326 330 333 333 333 333 335 333 333 333 333 334 331 331 330 331
307 309 311 312 310 310 311 312 311 311 311 312 312 312 313 314 315 314 315 319 321 321 320 320 320 320 322 324 326 326 329 331 330 331 332 332 333 335 335 334 332 332 332 331
305 307 310 311 311 311 309 310 313 312 314 319 313 312 312 314 314 314 317 321 320 320 320 320 320 322 322 324 326 328 327 329 329 330 332 332 334 335 335 332 331 333 329 328
305 305 310 312 311 312 311 311 312 315 317 316 313 314 314 313 319 320 320 320 320 320 320 319 319 320 321 322 322 326 327 328 328 329 329 331 333 334 334 333 332 332 329 326
304 304 306 310 312 313 312 315 311 313 313 314 314 315 318 318 319 318 318 318 319 319 319 318 318 319 319 318 320 323 327 328 328 327 328 328 331 333 333 331 330 331 331 328
303 304 305 305 311 310 315 313 316 315 320 317 313 313 317 318 316 316 313 311 311 312 314 315 317 318 317 318 319 321 323 327 328 327 327 327 328 331 331 331 332 332 331 329
303 302 302 304 307 312 312 315 312 314 316 315 314 312 313 318 313 311 309 308 308 308 309 312 316 317 317 318 319 320 320 322 326 326 326 326 327 329 331 331 331 331 331 330
302 305 303 303 306 309 310 313 315 322 315 314 315 315 316 316 312 312 310 308 308 308 308 309 315 316 317 318 318 318 319 319 320 325 325 326 325 329 329 329 329 330 330 329
304 304 305 303 303 310 311 309 310 312 314 316 319 318 316 315 313 311 308 307 307 308 308 308 312 315 317 318 318 317 317 317 318 320 324 325 325 328 329 328 328 327 327 327
303 303 304 304 303 307 305 309 307 306 311 313 318 318 317 316 312 307 307 307 307 307 308 308 310 315 317 319 317 316 314 315 314 315 323 324 326 328 328 327 326 326 326 326
304 303 304 303 302 301 302 303 305 307 307 308 309 310 313 310 307 307 306 306 306 307 308 311 314 318 319 318 316 315 312 313 312 312 317 324 325 327 326 325 325 325 325 324
303 306 304 302 302 302 301 301 303 304 304 305 306 307 307 307 306 305 305 306 307 307 309 313 317 316 316 315 314 313 311 308 310 310 314 320 324 325 325 325 325 324 325 324
304 305 303 303 302 302 301 301 302 302 303 304 304 305 306 304 304 305 307 308 308 308 315 315 315 314 313 311 310 309 308 307 307 309 311 314 324 324 326 325 324 324 323 321
304 304 304 305 303 304 302 302 301 302 302 302 303 303 304 305 308 309 309 309 310 314 314 313 313 311 309 308 305 303 304 306 305 305 307 312 322 325 325 325 323 321 319 317
302 303 303 304 304 304 303 305 304 305 304 303 304 305 307 309 309 309 313 314 313 311 310 309 307 306 305 302 300 300 302 302 302 301 302 305 320 324 325 323 318 317 315 309
304 305 306 305 307 305 305 304 305 305 307 309 310 310 309 308 310 311 306 305 304 304 303 303 303 302 300 297 296 298 298 297 297 295 296 301 306 323 321 316 314 308 308 302
305 307 309 307 309 305 308 307 306 308 310 310 308 306 304 304 306 305 303 302 301 301 300 299 299 298 295 293 293 294 295 293 292 293 294 298 305 317 318 312 309 304 299 296
305 306 307 308 310 310 305 307 311 309 308 307 306 302 300 304 304 303 301 299 299 298 298 298 298 297 294 290 290 291 292 290 290 291 293 295 306 311 311 307 299 297 295 291
305 304 305 307 306 305 302 302 301 302 306 303 302 301 303 302 301 299 298 296 296 296 296 296 296 295 294 290 287 288 288 288 289 291 292 293 297 299 303 299 294 292 291 290
303 304 305 305 303 301 301 299 298 297 297 299 300 301 301 300 299 298 296 296 296 295 294 293 293 293 292 289 287 285 286 287 288 289 291 292 293 291 292 293 293 292 290 289
304 304 302 306 302 300 301 300 299 299 298 299 300 299 298 298 296 296 295 294 293 291 290 290 290 289 289 288 285 284 285 286 287 287 288 290 290 289 286 286 287 288 289 288
302 301 302 303 300 299 301 298 298 298 297 297 297 297 297 295 294 294 292 290 289 288 287 286 286 286 286 286 284 282 283 285 286 286 286 287 287 286 285 284 284 284 283 283

GFSCGP_925_thetae_126.txt.gz
Theta_e
310 313 311 309 310 311 312 312 312 314 314 314 314 315 317 317 318 319 321 321 319 320 318 317 318 318 321 322 323 325 325 323 323 325 336 341 343 341 340 338 338 342 338 338
310 310 312 313 312 311 311 312 313 313 313 313 312 314 314 314 315 315 314 319 319 319 317 317 318 321 323 324 325 325 328 329 328 327 325 334 339 343 340 338 336 339 340 337
311 311 311 311 312 312 313 312 312 311 312 312 313 313 313 313 313 314 313 314 318 316 316 319 323 322 324 325 329 331 331 331 330 330 329 331 338 339 337 336 336 334 339 337
308 310 311 310 311 311 311 311 312 312 312 311 312 313 313 312 312 313 313 313 315 317 320 322 323 323 324 326 326 330 332 333 332 332 332 336 337 334 333 333 333 334 335 335
304 305 307 308 311 311 312 312 312 312 313 312 313 314 314 313 313 313 313 314 316 318 322 321 321 321 321 325 326 326 330 332 334 335 334 337 335 334 333 332 331 332 332 332
303 306 306 306 308 310 311 310 311 313 313 314 313 313 314 313 313 315 316 316 319 323 321 320 321 320 323 325 326 328 329 329 330 331 332 335 336 333 332 331 331 331 331 332
303 305 306 306 308 311 312 311 312 317 317 317 313 313 314 314 314 316 315 318 323 321 321 321 321 321 321 322 323 324 326 328 330 329 329 331 334 333 332 335 334 333 332 332
301 303 305 311 312 314 313 313 315 311 314 315 314 316 314 315 314 318 317 321 321 321 321 321 320 320 320 320 320 322 323 327 330 329 328 329 332 333 333 334 333 332 332 330
302 303 304 304 306 310 315 315 314 317 314 314 315 315 316 316 316 320 321 321 321 321 320 319 318 319 319 318 320 322 322 323 326 328 327 328 330 331 334 334 333 331 333 330
301 302 302 303 303 306 311 312 316 317 319 316 313 315 319 318 318 320 320 319 319 318 316 315 316 318 317 318 319 320 320 321 321 325 327 326 328 329 332 333 332 330 331 330
301 302 303 304 302 303 311 312 312 315 320 316 317 315 317 319 319 319 316 314 312 311 310 311 314 316 316 318 318 319 319 319 320 321 323 327 327 327 328 331 332 331 331 330
301 303 304 303 304 306 306 313 315 313 317 314 317 316 315 317 319 316 310 309 310 309 309 309 309 314 315 317 318 318 318 317 317 318 319 324 327 326 327 329 331 331 332 331
303 306 306 305 305 306 308 307 309 311 313 314 318 317 318 317 316 314 311 309 308 308 308 309 309 309 315 316 319 318 316 315 316 315 315 319 325 326 326 329 330 331 331 330
306 303 302 304 303 307 304 304 305 309 310 310 310 313 317 316 316 314 312 308 307 308 307 308 310 310 319 319 318 316 316 313 313 313 314 315 322 325 325 327 329 328 329 329
306 304 302 302 303 302 301 301 302 303 308 308 308 309 310 309 311 314 313 306 306 306 307 308 310 318 317 315 315 314 313 313 311 309 311 313 314 323 325 328 328 328 327 326
305 306 306 307 304 303 303 303 302 302 303 305 305 306 307 310 308 307 306 306 307 308 308 309 316 315 314 313 312 311 310 308 308 309 309 311 311 317 325 326 327 326 325 325
304 304 304 305 303 303 303 302 302 301 302 303 304 305 306 305 308 310 310 309 309 308 313 314 313 312 311 310 308 306 305 305 306 307 307 307 306 313 324 325 326 325 324 324
304 305 304 305 304 304 303 304 305 302 302 302 302 303 307 309 308 310 311 312 312 313 312 311 309 308 308 306 303 301 301 303 303 303 304 302 301 306 318 325 325 324 324 321
303 305 305 306 304 303 303 307 306 305 304 309 310 309 307 308 307 309 307 306 306 306 305 304 304 304 303 300 298 297 299 300 299 298 298 298 298 299 306 316 322 322 319 315
302 305 308 305 308 305 307 303 305 306 306 309 308 306 305 305 308 308 304 303 302 302 301 301 301 300 298 296 294 294 296 296 295 294 293 294 296 297 301 312 315 314 315 307
305 305 308 309 308 308 303 304 305 309 308 307 306 304 303 304 304 303 302 300 299 299 299 299 299 299 297 294 292 291 291 292 290 291 291 293 295 296 304 310 311 308 303 298
305 305 305 306 305 305 301 302 303 301 302 302 302 302 304 303 301 300 298 297 297 298 297 297 297 297 296 293 291 289 288 288 288 289 290 292 293 298 308 305 301 300 297 293
304 304 306 306 304 303 300 300 299 298 299 299 301 302 301 300 299 298 298 297 297 295 294 294 294 293 293 291 289 287 286 286 287 288 289 291 292 296 299 298 296 294 293 291
303 304 304 303 303 300 300 299 299 298 299 299 300 299 298 298 297 296 295 294 293 292 291 290 290 289 289 288 287 285 284 284 287 288 288 290 290 292 294 294 294 294 292 290
304 304 302 303 302 299 300 300 298 299 298 297 297 297 296 296 295 294 293 291 290 289 288 287 286 286 286 285 285 284 283 284 286 287 286 287 287 287 287 286 286 289 291 290
302 301 302 302 300 299 300 298 297 297 297 296 295 295 294 293 293 292 291 288 287 286 286 285 284 283 284 283 283 283 282 283 284 286 285 285 285 284 285 284 283 284 285 285

GFSCGP_925_thetae_129.txt.gz
Theta_e
306 305 309 306 304 305 306 307 308 309 310 309 310 311 311 311 312 311 311 312 311 316 316 319 320 318 320 321 323 324 325 324 324 341 343 343 342 342 339 338 339 341 342 342
307 306 308 309 310 311 309 308 308 309 309 310 310 311 308 310 312 311 311 310 310 310 315 313 315 320 323 324 325 327 330 330 330 328 332 341 342 341 341 339 338 339 338 340
303 306 308 310 310 310 309 310 310 310 309 308 307 308 309 310 311 312 312 311 311 311 313 318 320 322 323 328 328 329 330 332 332 331 330 326 339 342 341 339 339 338 338 338
302 304 303 304 305 307 307 309 310 310 308 309 310 310 309 309 310 311 311 311 311 311 317 320 318 320 325 326 326 326 325 328 332 333 332 328 328 337 339 338 338 337 334 337
300 300 300 301 303 304 305 306 308 310 309 309 310 311 311 309 310 310 311 311 311 312 318 317 316 323 325 325 326 326 327 327 328 333 334 334 334 334 336 336 337 334 334 334
300 301 300 302 305 305 306 305 307 308 308 311 311 310 311 310 311 311 311 311 312 316 316 317 317 324 325 325 324 324 324 325 328 328 328 332 336 335 334 333 333 333 333 334
301 300 300 306 306 306 307 312 313 312 310 312 311 313 312 310 310 311 312 318 315 317 316 316 317 318 321 323 323 322 321 323 329 329 327 329 330 335 334 333 332 331 330 332
300 300 301 302 302 303 305 314 318 319 315 312 312 314 312 310 310 312 312 319 318 317 316 316 316 316 318 321 322 321 321 321 321 326 328 327 328 330 334 332 331 331 330 330
300 300 301 302 302 301 304 308 313 317 316 318 312 311 310 311 312 313 312 319 318 317 317 315 314 316 316 321 320 320 321 320 319 320 322 326 325 327 329 332 333 333 332 331
302 302 301 301 302 303 306 310 312 315 319 318 314 310 312 313 320 318 318 319 319 317 315 313 313 315 317 319 319 319 318 318 318 317 318 319 323 326 327 329 333 333 332 332
300 301 301 301 301 303 304 308 311 313 314 315 318 312 317 316 317 318 315 317 314 311 310 308 311 314 318 318 318 318 317 317 316 315 315 315 316 323 327 327 329 332 332 332
302 303 302 303 303 304 305 309 314 314 313 311 312 315 311 311 314 313 312 312 310 306 306 306 305 311 314 316 317 316 315 315 314 314 313 313 314 319 325 327 326 330 331 331
304 303 304 301 304 304 305 305 306 311 311 310 313 315 309 310 309 313 313 311 306 306 305 306 306 316 317 316 316 315 314 313 312 311 310 310 312 314 320 325 326 326 330 331
304 304 304 304 302 303 306 306 303 308 309 309 309 309 311 310 309 309 311 311 310 304 305 305 315 314 313 313 313 312 311 309 308 308 309 309 310 311 312 319 325 325 329 331
304 304 305 304 304 304 304 303 302 302 303 308 307 308 308 309 309 309 309 310 310 308 310 313 314 312 311 311 309 308 306 305 305 306 307 308 308 308 309 314 323 326 327 330
304 302 305 304 305 305 303 302 302 302 303 301 305 306 306 308 309 309 309 312 313 313 312 311 310 309 308 306 304 302 301 301 302 304 304 305 305 304 304 310 317 324 327 329
305 304 304 304 303 303 303 304 305 305 302 304 305 309 308 309 309 310 309 308 308 308 306 305 305 304 303 300 299 298 298 299 301 301 300 301 301 300 300 302 310 324 326 327
304 304 304 305 303 304 306 304 305 307 307 307 307 306 306 306 307 306 305 304 304 304 304 302 301 301 299 296 295 295 295 297 298 298 297 295 295 296 298 299 305 314 324 325
301 302 305 301 305 303 302 302 304 308 307 304 307 304 304 304 306 304 302 302 302 301 300 300 300 300 297 295 293 292 293 293 294 293 292 292 293 294 296 298 301 307 318 320
302 303 305 307 307 307 301 301 300 299 307 301 305 304 302 303 305 304 301 300 298 298 298 298 298 297 296 293 291 290 289 290 290 289 289 290 291 293 295 296 298 305 309 315
300 298 304 306 306 304 300 300 300 304 300 301 302 301 302 302 302 300 298 297 297 296 295 294 294 294 293 290 289 288 287 287 286 287 288 289 291 292 294 296 300 305 302 302
301 297 300 300 293 298 300 299 299 299 299 300 300 299 300 299 299 298 297 295 295 292 291 290 290 290 289 287 287 286 285 285 284 286 288 289 290 291 293 297 302 302 298 293
297 303 303 304 304 301 300 299 298 298 298 298 299 298 297 297 296 296 294 293 292 290 289 288 287 287 286 285 285 284 284 283 284 285 287 288 288 289 291 295 297 295 294 292
303 303 299 302 301 299 299 298 298 298 299 297 297 296 295 295 294 294 291 290 289 288 286 286 285 285 284 284 283 283 282 282 283 285 286 286 287 286 287 290 294 294 293 292
302 303 301 301 300 298 299 298 297 296 297 296 295 295 293 293 292 291 289 287 286 285 285 284 284 283 282 282 283 282 281 282 282 284 285 285 284 285 284 284 287 291 292 292
301 300 298 300 300 299 299 297 296 295 296 295 294 293 292 291 290 289 288 285 284 283 283 283 282 282 281 282 282 281 281 281 281 283 284 283 283 283 283 283 284 285 287 290

GFSCGP_925_thetae_132.txt.gz
Theta_e
305 304 306 307 305 304 303 303 303 304 306 307 307 308 308 308 308 308 307 308 307 307 309 311 315 316 319 321 323 337 344 346 346 343 343 342 342 342 341 341 340 341 341 341
300 303 305 306 307 307 305 304 304 306 306 306 306 306 307 307 308 308 309 307 307 308 309 310 313 317 321 322 324 326 326 328 339 341 340 339 341 341 342 341 338 340 340 339
299 301 302 301 300 302 303 307 307 307 306 307 307 306 306 307 308 309 309 308 308 308 309 317 319 319 324 327 328 329 330 331 332 332 331 337 340 340 340 339 340 338 338 340
299 300 300 300 300 301 302 304 304 304 303 305 308 309 309 308 308 308 308 308 307 307 314 320 320 323 326 327 326 326 326 327 330 333 333 329 338 339 339 338 338 340 338 336
300 300 299 299 300 301 304 306 305 305 303 306 307 307 309 309 308 308 307 308 307 307 317 317 320 322 323 325 326 325 326 326 327 328 332 333 331 331 334 339 338 336 334 333
300 300 300 299 301 302 304 307 308 307 304 308 308 308 308 309 308 309 309 309 308 308 315 319 322 323 325 323 321 320 322 326 327 328 327 327 330 334 333 334 336 336 333 334
299 300 299 300 300 300 300 307 311 311 308 307 307 308 308 308 309 309 309 309 308 310 314 321 323 322 320 321 320 320 322 324 327 328 328 327 326 328 333 334 334 334 334 334
299 300 299 300 301 300 300 310 308 313 313 316 312 312 310 310 312 314 316 310 312 313 316 322 320 318 320 320 320 320 319 319 318 319 323 326 326 326 327 330 331 333 331 331
301 301 300 300 300 301 302 301 304 309 308 310 311 311 309 312 313 315 314 314 315 315 316 316 316 319 319 319 319 319 318 317 316 316 316 316 318 322 325 326 328 329 332 331
301 301 301 300 300 300 301 302 306 307 303 309 316 315 315 312 312 312 314 315 312 317 316 316 315 318 318 318 319 318 317 316 315 314 313 313 314 316 320 324 326 327 330 332
301 300 301 300 300 301 303 304 306 308 309 310 312 315 312 311 312 311 313 314 313 310 310 309 314 318 317 317 316 316 315 314 314 312 311 311 312 313 317 322 325 327 327 331
302 302 303 301 301 304 303 305 307 309 309 311 312 312 310 310 310 309 308 309 310 311 310 309 315 315 315 314 313 313 312 311 310 309 309 309 310 311 312 314 319 325 326 326
303 302 300 300 300 303 303 303 304 307 309 308 309 305 309 308 309 306 308 309 310 309 309 311 314 313 313 313 312 309 307 306 305 306 306 307 307 308 309 309 311 317 324 326
303 303 303 303 304 303 304 303 303 304 307 306 306 305 308 309 308 306 308 309 311 312 311 312 311 309 307 307 306 304 303 303 303 304 304 304 305 305 306 306 307 312 319 325
303 302 303 303 303 303 304 304 302 302 302 305 303 305 308 309 309 308 308 311 310 308 307 307 306 305 302 301 300 299 299 299 301 302 301 301 301 302 301 302 304 306 315 322
302 299 301 303 303 303 302 304 305 306 307 305 306 309 307 309 309 310 308 308 307 306 305 304 303 302 300 298 297 296 296 297 298 299 299 298 297 297 297 298 300 303 308 317
305 305 304 304 302 303 305 303 306 307 306 308 308 307 305 306 309 306 306 305 304 302 301 301 300 299 297 295 294 293 293 294 294 296 295 294 294 294 295 295 297 299 302 311
304 302 303 305 304 304 302 300 303 305 302 303 304 304 304 303 305 303 302 302 301 300 299 298 297 296 294 292 291 291 291 290 292 292 291 291 291 292 293 294 296 297 299 304
301 302 305 303 305 303 301 300 301 302 303 300 301 301 302 303 304 303 299 298 298 296 294 293 293 293 290 289 289 289 288 288 288 288 288 288 289 291 292 294 295 296 297 300
300 301 298 304 305 304 302 300 299 299 304 299 301 301 302 302 304 303 298 297 294 292 291 290 290 290 289 287 287 287 286 286 285 285 286 287 288 290 291 292 294 295 297 300
297 294 295 299 300 303 300 299 299 300 297 299 300 300 300 301 300 299 296 294 291 290 288 287 287 287 286 285 285 285 284 284 284 284 284 286 288 289 290 291 292 296 298 300
299 297 293 296 290 296 299 299 299 299 299 299 299 298 298 298 297 295 293 291 290 288 287 286 285 285 284 284 283 283 283 283 282 283 284 286 287 288 288 288 292 295 297 297
296 299 296 302 302 300 300 299 298 297 298 297 298 297 295 296 293 293 290 288 287 287 286 285 284 284 283 282 283 282 282 281 281 282 283 285 285 286 286 287 289 291 295 294
299 300 298 298 299 300 298 298 296 297 297 297 295 294 293 293 291 290 289 287 286 285 285 285 282 283 282 281 282 282 281 281 281 281 282 284 284 284 285 285 286 288 292 293
296 302 299 298 299 299 299 297 296 296 296 295 294 292 291 291 290 289 288 286 284 284 282 284 282 282 281 281 281 282 280 280 281 281 282 283 283 283 283 283 284 285 288 291
299 300 294 294 297 298 298 296 297 295 294 292 291 291 290 289 289 287 287 285 283 283 281 282 281 281 281 280 281 281 280 279 280 280 281 281 281 281 281 282 282 283 285 288

GFSCGP_925_thetae_135.txt.gz
Theta_e
303 304 305 305 305 306 303 302 303 304 303 305 304 305 306 306 305 305 305 305 305 306 306 308 310 312 315 315 315 319 338 343 343 342 341 340 340 341 341 341 341 341 341 339
297 298 303 300 300 302 306 305 304 304 303 303 303 304 305 306 304 305 306 305 305 305 306 306 313 315 316 317 318 319 335 342 343 342 341 340 339 340 341 340 341 341 341 341
299 299 300 300 299 299 299 303 303 304 302 303 303 305 305 306 305 306 306 305 305 305 306 307 316 320 322 324 325 331 339 342 344 343 340 340 339 339 338 339 340 339 340 340
299 299 300 299 299 299 300 303 305 303 303 303 305 303 304 305 305 306 306 305 304 304 305 307 318 322 326 328 329 330 331 332 333 332 332 333 337 338 338 338 337 338 339 338
300 299 299 298 299 300 303 302 306 307 306 304 304 304 305 305 306 306 305 306 306 305 304 307 317 323 325 326 326 326 328 330 332 333 333 331 329 332 337 337 337 336 335 338
300 299 299 300 300 300 300 300 304 306 305 305 304 304 304 304 307 309 312 313 314 309 304 310 318 322 321 323 324 326 326 328 327 327 326 326 327 329 333 332 333 334 333 334
298 299 299 299 299 299 299 301 303 306 308 306 307 306 308 311 313 312 314 313 311 312 309 310 319 321 318 319 322 325 326 324 327 327 326 326 325 325 327 330 332 332 334 333
299 300 299 299 300 300 299 303 301 304 304 304 304 305 306 308 308 311 313 311 310 310 310 310 321 320 317 318 319 319 318 318 318 320 321 323 324 324 325 326 328 330 331 332
300 300 298 300 300 299 300 300 301 303 304 306 305 305 308 308 308 310 312 310 309 310 310 316 319 318 318 318 317 316 315 315 314 313 313 314 315 316 319 322 325 328 327 327
299 300 300 300 299 299 300 300 301 302 302 304 302 307 310 311 310 310 309 307 309 310 311 314 316 317 317 316 315 314 313 312 311 310 311 311 312 313 316 320 323 325 326 327
301 300 299 300 299 301 303 304 304 303 305 307 308 307 310 309 310 310 310 307 309 309 309 315 316 315 314 313 311 310 309 308 307 308 308 308 309 310 311 311 315 320 324 325
301 302 303 300 299 301 302 303 304 301 301 308 309 308 309 309 307 308 309 310 310 309 309 313 314 312 310 307 306 304 303 303 304 305 305 306 306 306 307 308 308 311 316 322
302 301 300 301 299 302 301 303 304 307 307 307 307 306 307 307 307 308 309 309 310 310 310 308 307 306 304 302 301 301 300 300 302 302 302 302 302 303 303 303 305 306 309 315
303 302 302 302 301 300 303 303 304 304 305 305 306 303 307 309 308 310 308 309 307 306 305 305 304 303 301 299 298 297 297 298 299 299 299 299 298 298 299 300 302 303 305 308
301 301 302 302 302 302 303 303 304 305 304 306 306 307 307 308 310 310 308 307 305 304 302 302 302 300 298 296 295 294 294 295 295 297 298 296 295 296 297 297 298 301 303 305
301 300 301 303 303 303 303 301 303 305 306 306 305 306 304 305 307 306 305 304 303 302 301 299 299 297 295 293 292 292 291 291 292 294 293 292 292 293 294 295 296 298 300 301
302 303 304 304 302 303 305 301 303 304 303 305 305 304 302 302 305 303 302 300 299 298 296 295 295 294 292 291 290 290 289 289 290 290 289 289 290 291 292 293 294 296 297 298
303 301 303 305 303 304 302 300 300 303 300 300 301 301 301 302 303 299 298 298 295 294 293 292 291 291 289 288 287 287 288 287 287 287 286 287 287 289 290 292 293 294 295 296
301 301 304 301 305 303 301 300 299 300 301 299 300 300 299 300 302 300 295 294 293 291 289 288 288 288 287 286 285 285 285 285 285 285 285 285 286 288 290 290 291 292 294 295
298 298 296 302 304 304 301 299 298 300 302 298 299 298 299 298 300 299 294 292 289 288 287 286 285 285 284 284 283 283 283 283 283 283 283 284 286 287 288 289 290 290 292 294
296 293 293 298 290 295 299 298 298 300 296 298 298 298 298 298 298 297 292 289 288 287 286 286 284 284 283 282 282 283 282 282 282 282 283 283 285 286 287 287 287 288 290 294
297 296 292 294 288 293 298 298 298 298 298 298 298 297 296 296 293 291 290 289 287 285 284 284 283 282 282 281 281 281 282 281 281 281 282 282 284 284 285 285 285 287 288 293
293 293 294 297 297 297 299 297 297 297 297 297 296 295 293 292 291 289 289 288 286 284 283 282 283 282 281 281 281 281 281 281 280 281 281 281 282 282 283 283 284 285 287 291
295 300 300 295 297 299 296 298 295 295 296 295 294 292 291 291 290 289 288 286 284 283 282 281 282 281 281 280 280 280 281 280 280 280 280 280 280 281 281 283 283 284 285 287
292 300 298 294 298 298 299 295 296 295 294 292 292 291 289 289 289 288 287 285 283 282 281 281 281 281 280 280 280 280 280 279 279 280 280 279 279 280 280 281 282 282 283 285
297 298 294 292 296 295 298 295 295 294 291 290 289 288 287 286 286 286 286 285 283 282 281 280 280 280 279 279 280 280 280 279 278 279 279 278 278 279 279 280 281 282 282 284

GFSCGP_925_thetae_138.txt.gz
Theta_e
299 303 303 303 303 304 304 303 302 302 303 302 301 302 303 302 302 302 302 303 303 304 304 307 308 310 310 313 314 314 316 334 340 339 338 337 337 335 336 336 335 335 336 336
296 297 300 299 299 298 299 302 301 301 302 302 300 303 303 302 303 303 303 302 303 303 303 304 307 308 313 314 315 316 314 334 340 340 340 339 338 338 338 338 337 337 336 335
298 298 299 299 298 298 298 299 300 302 301 300 300 302 302 304 304 304 303 303 303 303 303 305 305 308 316 318 317 319 317 329 340 341 340 340 337 336 337 337 339 337 338 338
298 299 299 298 299 299 300 299 301 304 303 303 302 303 303 302 302 305 307 310 311 311 311 310 306 306 319 321 323 326 327 337 339 340 338 338 337 336 336 336 334 334 336 338
299 298 298 298 299 299 300 299 299 302 303 303 300 301 302 302 310 311 310 312 311 309 309 309 309 305 317 324 326 329 336 337 336 340 339 337 337 337 335 336 336 336 336 337
299 298 298 299 299 299 299 298 299 303 302 304 303 303 303 309 311 311 310 312 309 308 308 309 310 315 320 322 325 327 330 329 328 329 329 330 330 331 331 332 333 335 337 336
298 298 298 299 298 298 298 298 299 300 306 302 300 300 304 308 308 310 310 310 308 308 309 310 311 316 319 320 325 326 325 325 326 325 325 325 325 326 327 328 330 332 332 331
299 299 298 298 299 299 297 300 299 300 301 300 299 299 299 307 306 308 308 307 306 307 308 309 314 314 316 317 317 317 317 316 318 322 323 321 321 323 324 325 326 328 329 330
299 299 298 299 299 298 298 298 299 301 300 302 299 300 301 304 304 307 308 308 307 309 309 310 315 315 314 313 313 312 311 310 310 311 312 313 312 314 316 320 323 325 328 328
299 299 299 299 298 298 301 300 301 300 294 300 297 300 306 305 306 309 309 309 309 308 309 310 316 314 310 308 306 306 306 306 307 307 307 309 309 309 310 313 316 320 323 326
300 299 299 299 298 298 302 302 303 302 302 305 305 302 307 308 309 308 309 310 311 308 307 304 302 302 305 303 302 301 302 303 303 303 303 304 304 306 306 306 307 308 313 319
300 301 302 299 298 298 301 302 301 300 303 304 307 304 308 308 308 308 310 308 306 304 302 302 299 295 298 299 298 298 298 299 300 300 301 301 301 301 301 302 303 305 307 309
300 300 298 299 297 301 301 302 302 304 305 303 304 305 305 306 308 308 307 306 303 302 299 298 296 293 292 295 295 294 295 294 296 298 298 297 297 297 298 298 299 300 302 306
302 301 301 299 299 298 301 302 302 304 305 303 303 303 306 305 307 306 307 305 304 302 299 298 295 293 292 292 292 292 292 291 292 295 295 294 294 294 295 295 297 298 300 302
300 301 301 301 300 300 301 302 301 304 304 305 306 307 304 304 305 306 303 302 301 298 297 296 296 294 292 291 290 290 290 289 290 291 291 291 291 291 292 293 294 296 298 300
300 297 299 301 301 302 303 300 300 304 303 303 305 307 301 301 302 302 300 299 297 295 294 293 292 292 291 289 288 288 288 288 288 288 288 288 288 289 290 291 292 294 295 296
301 302 303 302 302 302 303 301 300 302 301 302 303 302 301 300 302 300 298 296 295 293 292 291 290 289 289 287 286 285 286 286 286 286 286 286 286 287 288 290 291 292 293 294
301 302 303 303 303 303 299 299 298 301 299 299 300 299 299 298 299 297 295 293 292 290 289 288 287 286 286 285 284 284 284 284 284 284 284 284 285 286 288 289 290 291 292 292
299 301 303 299 303 301 301 299 299 299 301 298 298 299 297 297 299 296 293 291 289 288 287 286 285 284 284 283 282 282 283 283 283 283 283 283 284 285 286 287 288 288 289 289
297 296 295 300 303 303 300 298 297 299 301 298 297 298 297 296 297 297 291 289 287 286 285 285 284 283 283 282 281 282 282 282 282 282 282 283 283 284 285 286 286 286 287 288
295 292 291 299 288 293 297 297 298 301 298 299 297 297 296 295 296 292 291 289 287 286 284 283 283 282 281 281 280 281 281 282 281 281 281 282 281 283 283 284 284 285 285 287
290 294 290 292 288 293 296 297 298 296 297 298 297 296 294 293 293 290 289 288 285 284 283 282 282 282 281 281 280 280 280 281 280 280 281 281 281 281 282 282 282 283 284 286
294 291 292 293 294 294 298 296 295 297 296 297 296 293 292 291 291 289 288 286 284 283 282 281 281 281 280 280 280 280 280 280 280 280 280 280 280 280 280 280 281 282 283 284
292 299 300 295 296 297 294 295 294 294 294 294 292 291 290 289 288 287 287 285 283 282 282 281 280 280 280 279 279 279 280 279 279 279 279 279 278 278 279 279 280 279 281 282
290 299 299 295 296 296 297 296 293 294 292 290 290 289 287 286 285 285 284 285 283 282 281 281 280 280 279 279 279 279 279 279 278 278 278 278 277 277 278 278 279 279 281 282
295 297 295 293 291 290 293 293 293 291 289 288 287 286 285 284 283 283 283 282 282 280 280 280 279 279 278 278 278 278 278 278 277 277 277 277 277 277 277 277 278 281 281 282

GFSCGP_925_thetae_141.txt.gz
Theta_e
300 306 306 301 302 304 303 303 303 303 303 305 305 305 305 305 304 305 306 307 307 308 307 308 309 308 308 309 310 311 312 312 330 334 335 335 334 334 334 333 333 333 334 335
300 300 300 299 299 299 299 301 302 303 304 304 305 304 305 305 305 306 308 311 313 314 313 313 312 311 310 310 311 311 312 313 326 334 335 335 335 334 334 333 332 332 333 335
300 300 300 299 300 301 300 300 301 301 303 303 304 303 303 304 309 310 310 311 313 313 312 312 312 311 312 311 312 314 317 317 319 333 336 336 336 336 334 333 333 333 337 334
299 299 299 300 300 300 301 300 299 300 301 301 303 301 302 307 310 310 310 311 312 312 311 312 312 312 312 313 311 318 322 323 321 333 338 337 337 335 335 336 336 335 332 332
300 299 299 300 300 300 301 300 299 300 301 302 302 302 303 309 310 309 309 310 311 310 311 311 312 312 313 314 314 322 327 330 330 334 337 337 336 337 335 336 337 335 334 330
298 298 299 299 299 299 299 299 299 303 304 302 302 301 303 309 309 309 309 310 310 309 309 310 311 312 314 316 321 326 326 327 331 333 336 336 336 329 325 326 330 334 333 333
299 299 299 299 299 299 299 301 298 299 303 301 300 300 302 304 306 307 309 309 309 309 310 309 309 315 316 318 320 320 321 318 320 325 327 328 329 328 328 328 327 329 332 332
299 300 299 299 299 299 299 299 299 299 299 299 299 298 299 304 305 306 308 309 309 310 306 304 301 304 308 311 312 311 312 313 314 315 315 317 320 323 324 325 325 327 330 330
300 299 299 299 299 298 299 299 300 301 301 300 299 300 300 305 306 308 308 309 309 305 303 301 299 298 299 300 303 307 309 308 308 310 310 310 312 312 313 317 321 322 324 325
300 297 299 299 299 300 301 301 303 302 300 299 299 301 303 307 309 308 310 307 305 303 302 299 297 296 297 296 297 298 302 303 304 305 305 305 306 307 307 308 308 311 316 317
300 299 298 300 299 299 302 303 304 304 303 302 305 303 308 309 307 309 306 304 302 300 297 296 293 293 293 294 294 294 295 297 300 301 301 301 301 301 302 303 303 304 306 308
301 301 299 299 299 299 301 303 303 304 304 306 306 304 307 307 307 307 305 304 302 300 297 296 292 292 292 291 291 292 292 292 295 297 297 298 297 298 299 299 300 300 301 304
301 301 299 300 300 301 302 302 303 304 305 305 305 303 304 304 305 306 305 303 301 299 297 296 294 292 291 290 290 289 290 290 291 293 294 294 294 295 296 297 297 298 299 301
302 301 300 298 298 300 301 302 302 303 305 303 304 304 305 303 302 304 303 301 299 297 296 295 293 292 291 290 288 288 288 288 288 289 290 291 292 292 293 294 295 296 297 299
302 302 302 302 301 302 302 302 302 303 303 306 303 304 303 302 301 304 300 298 296 295 294 292 291 290 289 288 287 286 287 287 287 288 289 289 289 290 291 292 294 295 296 297
301 302 302 302 302 302 303 302 300 302 305 303 302 304 301 300 299 299 298 296 295 293 292 290 289 287 287 286 285 285 286 286 286 287 286 287 287 288 290 291 292 293 293 294
301 302 303 302 302 303 303 301 300 300 301 301 303 302 299 299 298 298 295 294 293 291 290 289 288 286 285 284 284 283 284 285 285 285 285 286 286 287 288 289 290 291 291 292
301 303 303 303 303 303 301 299 299 300 300 299 299 299 299 297 297 295 293 292 291 289 288 287 286 285 284 283 283 282 283 284 284 284 284 284 285 285 286 287 288 288 289 289
301 302 303 303 303 302 301 300 299 299 300 298 298 298 297 296 297 295 292 290 289 288 286 285 284 284 283 282 282 282 283 283 283 283 283 283 284 284 285 286 286 286 286 287
299 299 301 302 302 303 302 299 298 298 301 298 298 297 297 295 296 296 291 290 288 286 284 284 283 284 283 282 281 282 282 283 282 282 282 282 282 282 283 284 284 284 285 285
299 298 300 300 299 299 298 298 298 302 301 298 298 297 296 295 294 293 290 289 286 285 284 283 282 283 282 281 281 282 282 282 281 281 281 281 281 281 282 282 283 283 284 285
299 299 300 296 297 300 297 298 300 298 297 298 298 296 294 293 292 291 289 288 286 284 283 283 282 282 281 281 281 281 281 281 281 281 281 280 280 280 281 281 281 282 283 284
300 298 301 300 300 296 298 296 295 295 296 295 295 293 292 291 290 289 288 287 285 283 283 282 282 281 281 280 280 280 280 280 280 280 280 279 279 279 279 280 280 281 282 282
296 298 300 299 298 298 296 295 295 295 295 294 292 291 289 288 287 286 285 284 284 283 282 281 281 281 281 280 280 280 280 280 280 279 278 278 278 279 279 279 280 280 281 282
296 299 298 298 297 297 296 296 296 295 292 291 289 287 286 285 285 285 284 283 283 282 281 281 281 280 280 280 280 279 279 279 279 279 278 278 278 278 279 279 279 279 280 280
297 298 299 301 295 296 296 294 294 292 290 288 287 286 284 283 283 282 282 282 281 280 280 280 280 279 279 279 279 279 278 278 278 278 278 278 278 278 278 279 279 279 279 279

GFSCGP_925_thetae_144.txt.gz
Theta_e
307 310 310 308 306 306 306 306 307 307 307 306 307 307 307 308 308 309 311 313 313 314 313 313 313 314 315 315 316 315 316 317 319 323 333 335 336 337 337 337 337 338 338 338
305 306 303 303 303 303 304 304 305 305 305 305 306 307 307 307 311 312 311 310 311 311 312 312 312 313 314 315 315 316 315 315 317 318 323 330 334 334 335 337 338 337 338 338
304 303 302 302 303 303 304 304 304 303 304 305 305 306 307 309 310 309 309 310 311 311 312 312 312 313 313 314 315 315 316 315 317 319 319 326 333 335 336 338 338 338 336 337
303 302 302 303 303 303 304 303 302 303 303 304 304 304 306 308 309 308 309 310 310 311 311 312 313 310 312 316 316 316 317 318 319 320 323 323 333 335 336 335 336 336 336 335
304 302 303 303 302 302 304 302 302 302 303 304 305 304 308 309 308 306 308 309 310 311 312 311 308 306 305 306 311 320 320 322 324 326 327 326 332 335 336 336 335 334 335 336
302 302 302 301 301 301 301 302 303 303 305 304 305 304 304 305 304 307 309 310 312 309 306 305 303 303 301 299 300 306 318 322 323 331 333 332 335 337 338 337 336 336 336 337
302 302 301 301 302 302 302 302 302 303 306 305 304 302 304 303 306 309 310 310 306 304 302 301 300 299 300 298 297 298 305 311 314 318 326 334 336 335 335 335 336 335 330 328
303 304 302 301 301 301 301 301 301 301 302 303 303 302 303 304 308 308 310 308 304 302 301 299 297 297 296 295 296 295 297 303 306 312 315 319 327 330 330 330 330 330 330 329
303 302 301 301 301 300 302 301 302 302 302 303 302 302 303 306 308 307 309 305 303 302 301 299 298 296 293 292 292 294 295 296 298 303 306 311 313 319 323 321 322 324 323 327
303 301 301 301 301 302 301 303 305 305 305 302 302 303 305 309 309 308 306 305 302 301 301 299 297 295 294 292 290 291 293 293 294 297 299 302 306 310 311 313 314 315 316 319
302 301 301 300 300 301 304 304 304 305 304 303 303 305 310 308 306 308 306 305 302 301 299 298 296 294 293 292 290 289 290 291 293 293 296 298 301 303 306 307 307 309 310 311
302 301 300 300 301 302 302 304 305 306 306 306 308 305 308 306 305 305 306 304 302 301 299 297 295 293 291 290 289 288 288 289 291 291 293 295 298 299 301 303 304 305 306 307
302 301 300 302 303 302 303 304 304 305 305 305 307 304 307 306 305 304 304 302 301 300 299 297 295 292 290 289 288 288 287 288 289 291 291 293 294 295 297 300 301 302 304 305
301 300 300 301 302 303 303 302 303 304 305 304 304 304 305 305 303 303 302 301 300 299 297 296 294 292 290 289 287 287 287 288 288 290 292 292 292 293 295 297 299 300 301 302
302 302 301 301 302 302 302 302 303 304 304 304 304 304 305 303 303 301 300 299 298 297 296 295 294 291 289 288 287 286 286 287 287 288 289 290 290 292 293 295 295 297 298 299
304 305 304 304 303 303 304 304 304 303 303 304 304 304 304 302 301 299 299 297 296 295 294 293 292 290 288 287 286 285 285 286 287 288 288 289 289 290 291 292 293 294 295 296
305 304 304 303 303 303 305 304 303 302 303 303 304 304 301 301 300 298 297 296 294 293 292 291 290 289 288 286 285 284 285 285 286 286 286 287 287 287 289 290 291 292 292 292
304 304 304 304 304 305 305 302 301 302 302 301 300 300 299 299 298 296 295 295 293 292 291 290 289 288 288 286 285 284 285 285 285 285 285 285 285 286 286 288 289 290 289 290
303 303 305 306 303 303 303 302 302 302 302 300 300 300 299 298 298 297 295 293 292 290 289 288 287 287 287 286 285 285 285 285 285 284 284 284 285 285 286 286 287 287 288 289
303 303 306 304 304 303 305 301 300 301 305 300 300 299 298 298 299 298 294 292 291 289 288 287 287 287 286 285 285 285 285 285 284 284 284 284 284 285 285 286 286 287 288 288
304 304 305 304 304 304 303 301 301 304 304 299 299 299 297 297 296 294 293 292 290 289 287 287 287 286 286 285 284 285 285 284 283 283 284 284 284 283 284 285 286 286 287 287
304 305 304 303 304 304 300 301 303 302 299 298 297 297 295 295 293 293 291 290 289 288 287 286 286 286 285 284 284 284 284 283 283 283 283 283 283 283 283 284 285 284 285 286
305 306 306 304 305 302 301 301 298 298 298 297 296 295 294 293 292 290 290 289 287 287 286 285 285 285 285 284 284 284 283 282 282 283 282 282 282 282 283 283 283 284 283 284
302 301 304 303 302 302 300 298 297 297 297 296 294 293 292 290 290 289 289 288 287 286 285 284 284 285 284 283 283 283 282 281 282 282 281 281 281 281 282 282 282 282 282 282
303 302 302 301 301 300 299 298 298 297 296 294 292 290 289 288 289 288 287 286 285 284 284 283 284 283 283 282 282 282 281 281 281 281 282 282 281 281 281 282 282 281 281 280
300 301 303 302 303 302 300 298 297 296 294 292 290 289 287 285 286 285 285 284 283 282 282 281 282 281 281 281 281 281 281 280 280 281 282 281 281 281 281 281 282 282 281 280

GFSCGP_925_thetae_147.txt.gz
Theta_e
311 312 314 312 311 309 308 309 309 310 309 308 308 308 309 310 312 313 313 313 313 313 313 312 312 314 314 314 316 318 317 318 318 319 321 331 335 336 338 339 338 338 341 342
309 309 308 307 306 306 306 307 308 308 308 307 308 308 310 311 313 312 312 312 312 312 313 312 313 311 310 310 310 312 316 319 318 318 318 320 326 332 335 337 339 340 339 341
309 308 305 305 306 306 307 307 308 306 306 307 308 308 310 312 311 310 310 311 311 313 314 313 311 309 309 307 307 307 309 315 322 319 319 319 320 327 333 335 337 339 340 341
308 307 305 305 305 305 306 306 306 305 306 306 307 306 309 311 311 309 309 312 313 312 310 309 308 307 306 305 304 303 303 306 315 321 324 322 324 325 331 334 335 337 340 340
308 305 305 305 306 305 305 305 305 305 306 307 307 307 309 311 311 308 312 311 310 309 308 307 305 304 303 301 301 300 299 300 302 306 317 323 331 327 325 332 335 337 338 340
306 305 305 305 304 303 304 304 306 306 307 309 309 308 308 309 308 311 311 310 308 307 307 305 304 303 302 300 298 297 297 297 297 299 304 311 320 334 331 331 334 337 337 337
304 304 304 304 304 305 305 306 307 308 309 310 309 306 307 306 310 312 310 308 307 306 305 304 304 303 302 300 297 294 294 295 295 296 299 303 307 316 333 334 334 336 337 337
306 306 305 305 305 305 304 304 305 305 307 308 307 306 306 306 310 310 309 308 307 306 305 305 303 302 300 299 297 295 291 292 294 294 296 300 302 306 323 333 333 333 333 329
306 306 304 304 303 303 306 304 306 305 305 306 306 306 306 306 310 309 308 307 305 305 305 304 301 299 297 296 296 294 292 290 292 293 294 297 299 302 309 318 325 326 327 329
307 307 304 304 303 303 303 305 307 308 309 307 306 305 306 310 309 308 307 306 305 305 304 303 300 298 296 295 294 294 292 290 290 291 292 294 298 299 304 309 312 318 319 320
305 305 305 303 303 304 305 305 304 306 307 306 306 308 310 309 308 308 307 306 304 304 303 302 299 298 295 293 292 292 291 290 289 289 291 292 295 297 299 304 308 311 313 315
305 305 305 304 303 303 304 306 307 309 307 307 307 306 308 309 307 306 306 305 304 303 303 302 299 297 293 291 290 290 290 289 288 288 292 292 291 294 296 301 303 307 309 311
304 303 304 303 304 303 303 304 306 306 307 305 307 305 309 308 306 305 305 304 303 302 302 301 298 297 293 291 290 289 288 288 288 288 290 291 291 291 295 297 300 303 305 307
304 303 304 304 305 306 304 304 304 305 306 305 305 305 305 307 306 305 303 302 301 301 300 299 297 296 295 292 291 289 288 288 288 288 290 291 291 291 293 296 296 298 302 303
303 303 303 302 303 303 304 304 303 303 304 304 304 304 306 306 305 303 302 301 300 299 299 297 296 295 294 292 291 289 288 288 288 288 289 290 290 291 291 293 294 296 296 299
303 306 305 304 302 302 302 303 303 303 304 304 304 304 306 303 303 302 301 299 298 298 297 295 295 293 293 291 290 289 287 288 288 288 288 289 289 290 290 291 294 295 295 296
306 306 305 304 303 304 305 304 304 304 305 306 305 305 303 302 301 301 299 298 297 297 295 294 294 292 291 291 290 289 288 288 288 287 287 287 288 288 289 290 291 293 293 294
306 305 305 305 304 305 306 305 304 304 304 304 303 302 301 301 300 300 298 297 296 295 294 294 292 291 291 290 289 288 288 288 287 287 286 286 287 287 288 289 289 290 292 292
304 305 305 306 305 305 305 304 304 304 304 304 302 301 301 301 301 300 298 296 295 294 293 292 291 290 290 290 289 288 289 288 287 286 286 286 287 287 287 288 288 289 290 291
304 304 307 305 305 304 307 304 303 303 305 303 302 301 300 300 302 302 297 295 295 293 292 291 290 290 290 289 288 288 289 288 287 286 286 286 286 287 287 287 288 289 289 290
305 305 306 306 306 306 305 303 303 305 307 302 301 301 300 300 299 297 295 293 293 292 291 290 289 289 289 289 288 288 288 287 286 285 286 286 286 286 286 287 287 287 287 287
306 306 306 306 307 306 304 303 304 305 301 300 299 299 297 298 297 295 293 294 292 291 290 289 288 288 288 288 287 287 287 285 285 285 285 285 285 285 285 285 286 286 285 285
308 309 307 306 307 304 303 305 303 301 301 299 298 297 297 297 295 293 293 293 291 290 289 288 288 288 287 287 286 286 285 284 284 284 283 284 284 284 283 284 284 284 284 284
304 304 306 305 304 304 303 302 301 300 299 298 297 297 296 294 292 292 292 291 290 289 288 287 286 286 286 285 285 285 284 283 283 283 283 283 283 283 283 283 284 284 283 282
306 304 304 304 304 303 302 301 299 298 297 297 296 294 293 291 291 290 290 289 288 287 286 285 285 284 284 284 283 283 283 282 282 282 283 283 282 283 283 283 283 283 283 282
303 303 305 305 306 305 304 300 298 297 296 296 294 293 291 289 289 288 287 286 285 283 283 282 282 282 282 281 282 281 281 281 281 281 282 282 282 282 282 282 282 282 282 282

GFSCGP_925_thetae_150.txt.gz
Theta_e
313 313 314 315 312 311 310 310 310 311 311 310 309 309 308 310 313 314 313 313 313 313 314 312 311 310 309 309 308 307 307 308 310 315 320 324 323 331 339 340 339 341 342 345
313 313 313 311 309 309 309 308 309 310 310 309 308 308 309 311 313 312 312 312 314 312 311 309 309 308 307 306 305 305 304 304 306 307 309 316 324 321 324 336 339 338 341 342
311 312 308 308 309 308 308 309 309 309 309 307 307 308 310 312 312 311 312 313 311 310 309 308 307 306 305 304 303 302 302 301 303 302 305 310 317 323 326 321 334 339 339 340
311 311 307 307 307 307 308 308 308 307 307 305 308 306 311 312 312 311 313 311 310 309 308 307 306 306 305 304 302 300 300 299 300 299 301 302 306 311 315 322 329 327 339 340
310 309 307 307 307 307 307 306 307 306 305 306 306 307 308 313 312 314 311 309 309 308 307 306 305 305 304 304 302 300 298 297 297 297 298 300 301 304 306 313 321 329 333 336
309 307 307 307 307 306 305 304 305 306 306 307 309 310 310 311 311 313 310 308 308 307 306 306 305 304 303 301 299 298 298 296 295 295 295 297 299 301 304 307 317 327 332 337
308 306 306 305 305 305 306 306 308 309 309 310 310 309 310 311 312 311 309 308 307 307 306 306 304 303 301 299 297 296 296 295 294 293 294 294 296 299 302 305 312 318 332 334
309 307 306 306 304 306 308 306 307 306 309 310 309 308 309 312 311 309 308 307 306 305 305 304 303 301 299 298 296 295 295 294 294 292 292 294 294 296 299 301 308 313 325 333
309 309 306 306 306 304 305 304 307 307 307 307 305 307 307 311 310 309 307 306 305 305 304 304 303 301 299 297 295 294 293 292 292 292 291 293 293 294 297 300 304 309 315 322
308 308 306 305 304 304 303 305 307 306 310 308 308 308 311 311 310 309 308 307 306 305 304 304 303 301 299 296 294 293 291 291 291 290 290 291 292 293 294 298 300 303 308 313
307 307 308 306 304 304 306 305 304 305 308 308 308 309 310 309 309 308 307 306 305 304 304 304 302 300 297 295 293 292 291 290 290 289 290 290 291 292 292 296 298 300 303 310
306 306 306 305 305 305 305 306 308 312 310 310 310 308 311 310 308 306 306 305 304 303 303 303 301 299 296 294 293 291 290 290 289 289 290 291 291 291 292 292 296 300 298 305
306 304 305 305 304 305 304 304 305 309 308 310 307 304 310 309 308 306 305 304 303 302 302 301 300 298 295 294 293 292 290 289 289 289 289 290 290 290 290 291 293 296 297 299
305 303 304 306 305 306 306 304 305 307 308 305 306 305 309 308 306 305 303 303 301 301 300 299 298 297 295 294 293 292 290 289 289 288 288 289 290 289 290 290 291 293 295 296
304 303 303 304 304 303 305 305 304 305 305 306 304 304 307 306 304 303 302 301 300 299 299 297 297 295 294 293 292 291 290 289 289 289 288 288 289 289 289 290 291 291 292 294
303 305 306 307 303 302 303 302 303 304 303 303 303 304 306 304 303 302 301 300 299 298 297 296 295 294 293 292 291 291 290 290 289 288 288 287 287 288 289 290 290 290 291 293
305 304 306 305 303 303 303 302 303 303 305 306 306 305 304 303 302 301 301 299 298 297 296 295 294 293 292 292 290 290 290 290 289 288 287 287 287 288 288 289 289 290 291 292
305 306 307 306 306 305 305 306 306 305 305 305 304 304 303 302 301 301 300 299 297 296 296 294 293 292 292 291 290 289 290 290 288 287 287 287 287 287 288 288 288 289 289 291
305 306 307 306 306 304 306 305 305 304 304 305 304 303 302 302 301 302 300 298 296 296 294 293 292 291 291 290 290 289 289 289 287 286 286 287 287 287 287 288 288 288 289 288
304 306 309 308 306 307 308 305 304 304 303 304 303 303 302 301 302 303 298 296 294 294 293 292 291 290 290 290 289 288 289 287 286 286 286 286 286 286 286 286 286 286 287 286
306 307 308 308 308 307 306 304 303 304 307 303 302 302 302 301 300 299 297 295 294 293 292 291 290 289 289 289 288 288 288 286 285 285 285 284 285 285 285 284 285 285 285 285
307 307 307 306 307 308 305 304 304 306 303 302 300 300 299 299 299 297 295 294 294 293 292 290 289 288 288 288 287 286 286 284 284 284 283 284 284 284 284 284 284 285 284 284
307 309 309 309 308 307 305 307 305 303 303 301 299 298 299 298 297 295 294 293 292 291 290 288 287 287 287 286 285 285 284 283 283 283 283 284 284 283 284 284 284 284 284 283
305 306 311 308 306 305 305 304 302 301 301 299 298 298 297 296 294 293 292 291 290 289 287 286 286 285 285 284 283 283 283 282 282 282 282 283 283 283 283 283 283 283 283 282
308 305 306 305 305 305 304 303 301 299 298 298 297 296 294 293 292 291 290 289 287 285 285 284 283 282 282 282 282 281 281 281 281 281 281 282 282 282 282 282 282 283 283 282
305 305 307 306 306 305 304 302 300 299 298 297 296 295 293 291 290 289 288 286 283 283 282 281 280 280 280 280 280 280 280 279 280 280 281 282 282 281 282 282 282 282 282 282